GW5759 Weather Reports


time (UTC)temp
C
wind
direction
speed
KPH
gust
KPH
rain 1hr
cm
rain 24hr
cm
rain mn
cm
humidity
%
barometer
mb
20260503020903 8 0 0.0 0.0 0.00 0.00 0.00 75 1017.0
20260503020003 8 134 0.0 1.6 0.00 0.00 0.00 76 1017.1
20260503015618 8 0 0.0 0.0 0.00 0.00 0.00 76 1017.0
20260503014717 8 0 0.0 0.0 0.00 0.00 0.00 74 1017.2
20260503013603 7 0 0.0 0.0 0.00 0.00 0.00 77 1017.3
20260503012703 9 0 0.0 0.0 0.00 0.00 0.00 72 1017.3
20260503011803 10 0 0.0 0.0 0.00 0.00 0.00 69 1017.5
20260503010903 10 126 0.0 1.6 0.00 0.00 0.00 68 1017.4
20260503010003 10 114 0.0 1.6 0.00 0.00 0.00 68 1017.3
20260503005403 10 0 0.0 0.0 0.00 0.00 0.00 69 1017.4
20260503004503 10 0 0.0 0.0 0.00 0.00 0.00 68 1017.5
20260503003816 11 0 0.0 0.0 0.00 0.00 0.00 67 1017.3
20260503002703 11 0 0.0 0.0 0.00 0.00 0.00 66 1017.7
20260503001803 11 130 0.0 1.6 0.00 0.00 0.00 65 1017.5
20260503000903 11 0 0.0 0.0 0.00 0.00 0.00 66 1017.4
20260503000003 11 103 0.0 1.6 0.00 0.00 0.00 66 1017.7
20260502235404 11 103 0.0 1.6 0.00 0.00 0.00 65 1017.6
20260502234716 11 0 0.0 0.0 0.00 0.00 0.00 67 1017.6
20260502233603 10 124 0.0 1.6 0.00 0.00 0.00 69 1017.7
20260502232703 10 0 0.0 0.0 0.00 0.00 0.00 70 1017.8
20260502231803 10 0 0.0 0.0 0.00 0.00 0.00 70 1017.8
20260502231118 10 0 0.0 0.0 0.00 0.00 0.00 70 1018.0
20260502230003 10 0 0.0 0.0 0.00 0.00 0.00 69 1017.8
20260502225403 10 0 0.0 0.0 0.00 0.00 0.00 70 1018.0
20260502224716 10 0 0.0 0.0 0.00 0.00 0.00 71 1018.1
20260502223819 10 0 0.0 0.0 0.00 0.00 0.00 70 1018.1
20260502222703 10 0 0.0 0.0 0.00 0.00 0.00 70 1018.1
20260502222018 9 0 0.0 0.0 0.00 0.00 0.00 74 1018.2
20260502220903 9 0 0.0 0.0 0.00 0.00 0.00 75 1018.1
20260502220217 9 0 0.0 0.0 0.00 0.00 0.00 75 1018.0
20260502215403 10 0 0.0 0.0 0.00 0.00 0.00 76 1018.1
20260502214720 10 147 0.0 1.6 0.00 0.00 0.00 74 1018.0
20260502213603 10 0 0.0 0.0 0.00 0.00 0.00 74 1017.9
20260502212703 9 0 0.0 0.0 0.00 0.00 0.00 74 1018.3
20260502211803 9 0 0.0 0.0 0.00 0.00 0.00 75 1017.9
20260502210903 9 0 0.0 0.0 0.00 0.00 0.00 75 1018.3
20260502210004 10 0 0.0 0.0 0.00 0.00 0.00 70 1018.4
20260502205616 11 0 0.0 0.0 0.00 0.00 0.00 69 1018.3
20260502204503 11 0 0.0 0.0 0.00 0.00 0.00 69 1018.2
20260502203603 11 0 0.0 0.0 0.00 0.00 0.00 68 1018.2
20260502202703 10 0 0.0 0.0 0.00 0.00 0.00 70 1018.5
20260502202017 10 0 0.0 0.0 0.00 0.00 0.00 71 1018.4
20260502200903 10 0 0.0 0.0 0.00 0.00 0.00 71 1018.4
20260502200003 11 0 0.0 0.0 0.00 0.00 0.00 67 1018.6
20260502195403 11 0 0.0 0.0 0.00 0.00 0.00 65 1018.6
20260502194504 12 0 0.0 0.0 0.00 0.00 0.00 62 1018.4
20260502193603 13 0 0.0 0.0 0.00 0.00 0.00 59 1018.6
20260502192703 13 0 0.0 0.0 0.00 0.00 0.00 57 1018.8
20260502191803 12 0 0.0 0.0 0.00 0.00 0.00 58 1018.6
20260502190903 12 0 0.0 0.0 0.00 0.00 0.00 61 1018.7
20260502190004 12 0 0.0 0.0 0.00 0.00 0.00 61 1018.6
20260502185403 13 0 0.0 0.0 0.00 0.00 0.00 59 1018.4
20260502184503 15 0 0.0 0.0 0.00 0.00 0.00 56 1018.4
20260502183603 15 0 0.0 0.0 0.00 0.00 0.00 51 1018.4
20260502182703 17 0 0.0 0.0 0.00 0.00 0.00 46 1018.3
20260502181803 17 0 0.0 0.0 0.00 0.00 0.00 43 1018.3
20260502181116 18 0 0.0 0.0 0.00 0.00 0.00 40 1018.3
20260502180219 20 0 0.0 0.0 0.00 0.00 0.00 36 1018.4
20260502163603 23 217 1.6 4.8 0.00 0.00 0.00 29 1018.9
20260502162703 23 194 0.0 1.6 0.00 0.00 0.00 29 1018.9
20260502162016 23 232 1.6 4.8 0.00 0.00 0.00 29 1019.1
20260502161119 23 219 1.6 4.8 0.00 0.00 0.00 30 1019.7
20260502151803 24 184 3.2 4.8 0.00 0.00 0.00 28 1019.8
20260502150903 25 194 1.6 6.4 0.00 0.00 0.00 28 1020.0
20260502123603 26 210 1.6 4.8 0.00 0.00 0.00 28 1021.7
20260502122919 25 227 1.6 4.8 0.00 0.00 0.00 29 1021.7
20260502121803 25 185 1.6 6.4 0.00 0.00 0.00 28 1021.8
20260502120904 24 211 1.6 6.4 0.00 0.00 0.00 31 1022.0
20260502115403 25 150 1.6 6.4 0.00 0.00 0.00 28 1022.4
20260502114503 25 135 0.0 3.2 0.00 0.00 0.00 29 1022.3
20260502113603 25 231 1.6 3.2 0.00 0.00 0.00 28 1022.6
20260502112919 26 254 0.0 3.2 0.00 0.00 0.00 30 1022.4
20260502111803 25 214 1.6 4.8 0.00 0.00 0.00 29 1022.6
20260502111117 25 197 1.6 4.8 0.00 0.00 0.00 29 1022.7
20260502110004 26 114 0.0 1.6 0.00 0.00 0.00 31 1022.8
20260502105403 25 231 0.0 3.2 0.00 0.00 0.00 31 1022.7
20260502104503 24 232 1.6 6.4 0.00 0.00 0.00 31 1022.9
20260502103819 24 302 1.6 3.2 0.00 0.00 0.00 31 1023.0
20260502102703 25 43 0.0 1.6 0.00 0.00 0.00 29 1023.3
20260502101803 24 213 1.6 4.8 0.00 0.00 0.00 30 1023.3
20260502100903 24 212 1.6 6.4 0.00 0.00 0.00 32 1023.5
20260502090903 23 186 1.6 3.2 0.00 0.00 0.00 33 1024.2
20260502090216 22 158 1.6 3.2 0.00 0.00 0.00 31 1024.2
20260502070903 18 155 0.0 1.6 0.00 0.00 0.00 51 1024.8
20260502070219 17 184 0.0 3.2 0.00 0.00 0.00 55 1024.8
20260502065403 16 156 0.0 1.6 0.00 0.00 0.00 56 1024.8
20260502064504 15 272 0.0 1.6 0.00 0.00 0.00 58 1024.6
20260502063817 15 221 0.0 3.2 0.00 0.00 0.00 62 1024.7
20260502062703 14 180 0.0 1.6 0.00 0.00 0.00 65 1024.6
20260502061803 13 0 0.0 0.0 0.00 0.00 0.00 68 1025.1
20260502061119 13 0 0.0 0.0 0.00 0.00 0.00 66 1024.9
20260502060003 13 7 0.0 1.6 0.00 0.00 0.00 71 1024.9
20260502055403 12 7 0.0 1.6 0.00 0.00 0.00 71 1024.6
20260502054718 11 0 0.0 0.0 0.00 0.00 0.00 73 1024.9
20260502053603 10 0 0.0 0.0 0.00 0.00 0.00 77 1024.9
20260502052703 8 0 0.0 0.0 0.00 0.00 0.00 86 1024.8
20260502051803 7 0 0.0 0.0 0.00 0.00 0.00 92 1024.8
20260502050903 6 0 0.0 0.0 0.00 0.00 0.00 95 1024.7
20260502050218 5 0 0.0 0.0 0.00 0.00 0.00 95 1024.8
20260502045403 4 0 0.0 0.0 0.00 0.00 0.00 95 1024.6
20260502044504 3 0 0.0 0.0 0.00 0.00 0.00 95 1024.6
20260502043817 3 0 0.0 0.0 0.00 0.00 0.00 95 1024.8
20260502042703 2 0 0.0 0.0 0.00 0.00 0.00 95 1024.7
20260502041803 2 0 0.0 0.0 0.00 0.00 0.00 95 1024.6
20260502040903 2 0 0.0 0.0 0.00 0.00 0.00 95 1024.7
20260502040004 1 0 0.0 0.0 0.00 0.00 0.00 95 1024.8
20260502035403 1 0 0.0 0.0 0.00 0.00 0.00 95 1024.6
20260502034503 1 0 0.0 0.0 0.00 0.00 0.00 95 1024.5
20260502033603 1 0 0.0 0.0 0.00 0.00 0.00 95 1024.5
20260502032703 1 0 0.0 0.0 0.00 0.00 0.00 94 1024.4
20260502031803 1 0 0.0 0.0 0.00 0.00 0.00 94 1024.4
20260502030903 1 0 0.0 0.0 0.00 0.00 0.00 94 1024.3
20260502030003 1 0 0.0 0.0 0.00 0.00 0.00 94 1024.4
20260502025403 2 0 0.0 0.0 0.00 0.00 0.00 94 1024.6
20260502024717 2 0 0.0 0.0 0.00 0.00 0.00 94 1024.6
20260502023604 2 0 0.0 0.0 0.00 0.00 0.00 94 1024.6
20260502022919 2 0 0.0 0.0 0.00 0.00 0.00 94 1024.6